When you browse on this site, cookies collect data to enhance your experience and personalize the content and advertising you see.
Visit our Privacy Policy to learn more. By continuing to use the site, you agree to this use of cookies and data.

Hourly Weather Tibissa

Today, 8 August, Saturday

Time Temperature Precipitation Wind Pressure Humidity
00:00 +24°C° 0 mm 2 mps 688 mmHg 53%
01:00 +23°C° 0 mm 1 mps 688 mmHg 57%
02:00 +22°C° 0 mm 1 mps 687 mmHg 59%
03:00 +22°C° 0 mm 1 mps 687 mmHg 61%
04:00 +21°C° 0 mm 1 mps 687 mmHg 63%
05:00 +21°C° 0 mm 1 mps 687 mmHg 61%
06:00 +22°C° 0 mm 1 mps 688 mmHg 59%
07:00 +21°C° 0 mm 2 mps 688 mmHg 56%
08:00 +24°C° 0 mm 2 mps 688 mmHg 48%
09:00 +25°C° 0 mm 3 mps 689 mmHg 39%
10:00 +27°C° 0 mm 4 mps 689 mmHg 30%
11:00 +28°C° 0 mm 4 mps 689 mmHg 27%
12:00 +30°C° 0 mm 4 mps 689 mmHg 25%
13:00 +32°C° 0 mm 5 mps 689 mmHg 22%
14:00 +32°C° 0 mm 5 mps 688 mmHg 21%
15:00 +33°C° 0 mm 5 mps 688 mmHg 21%
16:00 +33°C° 0 mm 6 mps 688 mmHg 20%
17:00 +32°C° 0 mm 6 mps 688 mmHg 24%
18:00 +30°C° 0 mm 7 mps 687 mmHg 28%
19:00 +28°C° 0 mm 7 mps 687 mmHg 32%
20:00 +27°C° 0 mm 6 mps 687 mmHg 37%
21:00 +26°C° 0 mm 5 mps 687 mmHg 42%
22:00 +25°C° 0 mm 3 mps 688 mmHg 47%
23:00 +24°C° 0 mm 3 mps 687 mmHg 50%

Tomorrow, 9 August, Sunday

Time Temperature Precipitation Wind Pressure Humidity
00:00 +23°C° 0 mm 2 mps 687 mmHg 54%
01:00 +21°C° 0 mm 2 mps 687 mmHg 57%
02:00 +21°C° 0 mm 2 mps 686 mmHg 59%
03:00 +20°C° 0 mm 2 mps 686 mmHg 61%
04:00 +20°C° 0 mm 2 mps 686 mmHg 63%
05:00 +20°C° 0 mm 2 mps 686 mmHg 60%
06:00 +21°C° 0 mm 2 mps 686 mmHg 58%
07:00 +21°C° 0 mm 3 mps 687 mmHg 55%
08:00 +24°C° 0 mm 3 mps 687 mmHg 48%
09:00 +26°C° 0 mm 4 mps 687 mmHg 40%
10:00 +28°C° 0 mm 5 mps 688 mmHg 32%
11:00 +29°C° 0 mm 5 mps 688 mmHg 28%
12:00 +30°C° 0 mm 5 mps 688 mmHg 24%
13:00 +33°C° 0 mm 6 mps 687 mmHg 20%
14:00 +33°C° 0 mm 6 mps 687 mmHg 20%
15:00 +33°C° 0 mm 6 mps 687 mmHg 20%
16:00 +34°C° 0 mm 6 mps 686 mmHg 19%
17:00 +33°C° 0 mm 6 mps 686 mmHg 22%
18:00 +32°C° 0 mm 6 mps 686 mmHg 25%
19:00 +30°C° 0 mm 6 mps 686 mmHg 28%
20:00 +28°C° 0 mm 5 mps 686 mmHg 34%
21:00 +27°C° 0 mm 4 mps 686 mmHg 40%
22:00 +25°C° 0 mm 3 mps 686 mmHg 45%
23:00 +24°C° 0 mm 3 mps 686 mmHg 48%

Day after tomorrow, 10 August, Monday

Time Temperature Precipitation Wind Pressure Humidity
00:00 +24°C° 0 mm 2 mps 686 mmHg 51%
01:00 +23°C° 0 mm 1 mps 686 mmHg 53%
02:00 +22°C° 0 mm 1 mps 685 mmHg 55%
03:00 +22°C° 0 mm 1 mps 685 mmHg 57%
04:00 +19°C° 0 mm 0 mps 685 mmHg 59%
05:00 +20°C° 0 mm 0 mps 685 mmHg 56%
06:00 +20°C° 0 mm 0 mps 685 mmHg 53%
07:00 +21°C° 0 mm 0 mps 686 mmHg 49%
08:00 +25°C° 0 mm 1 mps 686 mmHg 43%
09:00 +26°C° 0 mm 1 mps 686 mmHg 37%
10:00 +28°C° 0 mm 1 mps 687 mmHg 32%
11:00 +29°C° 0 mm 1 mps 687 mmHg 28%
12:00 +30°C° 0 mm 1 mps 687 mmHg 24%
13:00 +32°C° 0 mm 1 mps 687 mmHg 20%
14:00 +32°C° 0 mm 1 mps 686 mmHg 18%
15:00 +34°C° 0 mm 2 mps 686 mmHg 17%
16:00 +34°C° 0 mm 2 mps 686 mmHg 15%
17:00 +34°C° 0 mm 3 mps 686 mmHg 16%
18:00 +33°C° 0 mm 3 mps 686 mmHg 17%
19:00 +33°C° 0 mm 4 mps 686 mmHg 17%
20:00 +30°C° 0 mm 4 mps 686 mmHg 23%
21:00 +29°C° 0 mm 4 mps 686 mmHg 28%
22:00 +27°C° 0 mm 4 mps 686 mmHg 33%
23:00 +27°C° 0 mm 4 mps 686 mmHg 39%

11 August, Tuesday

Time Temperature Precipitation Wind Pressure Humidity
00:00 +26°C° 0 mm 3 mps 686 mmHg 45%
01:00 +25°C° 0 mm 3 mps 686 mmHg 51%
02:00 +24°C° 0 mm 2 mps 686 mmHg 53%
03:00 +24°C° 0 mm 2 mps 685 mmHg 54%
04:00 +23°C° 0 mm 2 mps 685 mmHg 56%
05:00 +24°C° 0 mm 2 mps 686 mmHg 54%
06:00 +24°C° 0 mm 2 mps 686 mmHg 53%
07:00 +25°C° 0 mm 2 mps 686 mmHg 51%
08:00 +27°C° 0 mm 2 mps 687 mmHg 44%
09:00 +28°C° 0 mm 3 mps 687 mmHg 37%
10:00 +30°C° 0 mm 3 mps 688 mmHg 30%
11:00 +33°C° 0 mm 3 mps 688 mmHg 26%
12:00 +34°C° 0 mm 3 mps 688 mmHg 23%
13:00 +35°C° 0 mm 2 mps 688 mmHg 20%
14:00 +36°C° 0 mm 3 mps 687 mmHg 18%
15:00 +36°C° 0 mm 3 mps 687 mmHg 17%
16:00 +37°C° 0 mm 3 mps 687 mmHg 15%
17:00 +36°C° 0 mm 3 mps 687 mmHg 17%
18:00 +35°C° 0 mm 4 mps 686 mmHg 19%
19:00 +34°C° 0 mm 4 mps 686 mmHg 21%
20:00 +33°C° 0 mm 4 mps 686 mmHg 26%
21:00 +30°C° 0 mm 4 mps 687 mmHg 30%
22:00 +29°C° 0 mm 4 mps 687 mmHg 35%
23:00 +28°C° 0 mm 3 mps 687 mmHg 38%

12 August, Wednesday

Time Temperature Precipitation Wind Pressure Humidity
00:00 +27°C° 0 mm 3 mps 686 mmHg 41%
01:00 +26°C° 0 mm 3 mps 686 mmHg 44%
02:00 +26°C° 0 mm 2 mps 686 mmHg 46%
03:00 +25°C° 0 mm 2 mps 686 mmHg 47%
04:00 +25°C° 0 mm 2 mps 685 mmHg 49%
05:00 +25°C° 0 mm 2 mps 686 mmHg 47%
06:00 +26°C° 0 mm 2 mps 686 mmHg 45%
07:00 +26°C° 0 mm 2 mps 686 mmHg 44%
08:00 +28°C° 0 mm 2 mps 687 mmHg 38%
09:00 +30°C° 0 mm 2 mps 687 mmHg 32%
10:00 +33°C° 0 mm 3 mps 688 mmHg 26%
11:00 +35°C° 0 mm 3 mps 688 mmHg 22%
12:00 +36°C° 0 mm 3 mps 688 mmHg 19%
13:00 +37°C° 0 mm 4 mps 687 mmHg 16%
14:00 +38°C° 0 mm 4 mps 687 mmHg 16%
15:00 +39°C° 0 mm 5 mps 687 mmHg 15%
16:00 +39°C° 0 mm 5 mps 687 mmHg 15%
17:00 +37°C° 0 mm 5 mps 687 mmHg 16%
18:00 +37°C° 0 mm 5 mps 686 mmHg 18%
19:00 +36°C° 0 mm 6 mps 686 mmHg 19%
20:00 +34°C° 0 mm 4 mps 687 mmHg 24%
21:00 +31°C° 0 mm 3 mps 687 mmHg 29%
22:00 +29°C° 0 mm 2 mps 687 mmHg 34%
23:00 +28°C° 0 mm 2 mps 687 mmHg 37%

13 August, Thursday

Time Temperature Precipitation Wind Pressure Humidity
00:00 +27°C° 0 mm 1 mps 687 mmHg 41%
01:00 +26°C° 0 mm 1 mps 686 mmHg 44%
02:00 +26°C° 0 mm 1 mps 686 mmHg 43%
03:00 +26°C° 0 mm 1 mps 686 mmHg 42%
04:00 +26°C° 0 mm 1 mps 686 mmHg 40%
05:00 +27°C° 0 mm 1 mps 686 mmHg 37%
06:00 +28°C° 0 mm 2 mps 687 mmHg 35%
07:00 +28°C° 0 mm 2 mps 687 mmHg 32%
08:00 +31°C° 0 mm 3 mps 688 mmHg 27%
09:00 +34°C° 0 mm 3 mps 688 mmHg 22%
10:00 +36°C° 0 mm 4 mps 689 mmHg 18%
11:00 +37°C° 0 mm 4 mps 689 mmHg 16%
12:00 +38°C° 0 mm 4 mps 689 mmHg 15%
13:00 +40°C° 0 mm 4 mps 689 mmHg 14%
14:00 +40°C° 0 mm 4 mps 688 mmHg 14%
15:00 +40°C° 0 mm 4 mps 688 mmHg 13%
16:00 +41°C° 0 mm 4 mps 688 mmHg 13%
17:00 +38°C° 0.1 mm 3 mps 687 mmHg 15%
18:00 +37°C° 0.1 mm 3 mps 687 mmHg 17%
19:00 +36°C° 0.1 mm 2 mps 687 mmHg 19%
20:00 +34°C° 0 mm 2 mps 687 mmHg 25%
21:00 +31°C° 0 mm 2 mps 688 mmHg 31%
22:00 +30°C° 0 mm 2 mps 688 mmHg 37%
23:00 +29°C° 0 mm 2 mps 687 mmHg 41%
Show more